Location: De Platvoet
(52.2667°N, 6.1667°E)
Time: 20:59:02
(UTC+00:00)

MetOp-A - Pass Details

Date: 15 May 2026
Orbit: 519 x 765 km, 98.3° (Epoch: 8 June)

Event Time Altitude Azimuth Distance (km) Brightness Sun altitude
Exits shadow 23:42:54 37° 193° (SSW) 1,109 4.3 -18.6°
Maximum altitude 23:44:40 61° 257° (WSW) 800 4.0 -18.6°
Drops below altitude 10° 23:49:16 10° 339° (NNW) 2,109 7.3 -18.6°
Sets 23:51:27 0° 343° (NNW) 2,987 8.3 -18.5°
